a  45.0510472      Node   160.48816     -0.47968733     +0.82304298             
e   0.0764369      Incl.    6.06760     -0.18506005     +0.24392520             
P 302              H    8.98          G   0.15           U   6                  
Residuals in seconds of arc
K198T  W84  0.1-  0.0     K20AH  W84  0.0   0.0     K21A7  W84  0.1+  0.1+ 
K198T  W84  0.1+  0.0     K20AH  W84  0.0   0.0     K21A7  W84  0.1-  0.0  
K199R  W84  0.0   0.1-    K2195  W84  0.0   0.0     
K199R  W84  0.0   0.1+    K2195  W84  0.0   0.1-    
2019 SM235                                                                      
Epoch 2023 Sept. 13.0 TT = JDT 2460200.5                Pike                    
M 300.02972              (2000.0)            P               Q                  
n   0.00343568     Peri.   32.84040     +0.45069024     -0.89251493             
a  43.4971966      Node    30.38179     +0.81151304     +0.40161339             
e   0.0618143      Incl.    1.94747     +0.37192055     +0.20524078             
P 287              H    9.21          G   0.15           U   7                  
Residuals in seconds of arc
K198S  W84  0.0   0.1+    K199T  W84  0.0   0.0     K21A7  W84  0.0   0.1+ 
K198S  W84  0.1-  0.0     K21A4  W84  0.0   0.1-    K21A7  W84  0.1-  0.1- 
K199T  W84  0.1+  0.1-    K21A4  W84  0.0   0.0     
2021 RA237                                                                      
Epoch 2023 Sept. 13.0 TT = JDT 2460200.5                Pike                    
M  21.30997              (2000.0)            P               Q                  
n   0.00246239     Peri.  161.32455     +0.64767530     +0.76173732             
a  54.3122392      Node   149.03562     -0.70307110     +0.60586881             
e   0.3666161      Incl.    1.84017     -0.29361153     +0.22951956             
P 400              H    9.40          G   0.15           U   7                  
Residuals in seconds of arc
K199R  W84  0.0   0.1-    K20AH  W84  0.0   0.0     K21A7  W84  0.1+  0.0  
K199R  W84  0.0   0.0     K2195  W84  0.2+  0.1+    K21A7  W84  0.0   0.2- 
K20AH  W84  0.1-  0.1+    K2195  W84  0.2-  0.0     
2021 RB237                                                                      
Epoch 2023 Sept. 13.0 TT = JDT 2460200.5                Pike                    
M 285.71952              (2000.0)            P               Q                  
n   0.00347332     Peri.  297.91590     +0.27707172     -0.96054336             
a  43.1823318      Node   135.97630     +0.89336948     +0.24824285             
e   0.0361427      Incl.    1.99910     +0.35372620     +0.12542701             
P 284              H    9.37          G   0.15           U   6                  
Residuals in seconds of arc
K198T  W84  0.0   0.1+    K20AH  W84  0.0   0.0     K21A7  W84  0.3-  0.1+ 
K198T  W84  0.0   0.1-    K2195  W84  0.1+  0.3+    K21A7  W84  0.2+  0.0  
K20AH  W84  0.0   0.0     K2195  W84  0.1-  0.4-    
2021 TP191                                                                      
Epoch 2023 Sept. 13.0 TT = JDT 2460200.5                Pike                    
M 324.24252              (2000.0)            P               Q                  
n   0.00313977     Peri.  254.36076     +0.76700975     -0.64107325             
a  46.1888418      Node   145.49832     +0.60535698     +0.70913500             
e   0.0896434      Incl.    2.71735     +0.21269453     +0.29351770             
P 314              H    9.48          G   0.15           U   8                  
Residuals in seconds of arc
K198S  W84  0.0   0.0     K20AI  W84  0.2+  0.1+    K21A6  W84  0.2-  0.1+ 
K198S  W84  0.0   0.0     K21A4  W84  0.1-  0.2-    K21A6  W84  0.2+  0.1- 
K20AI  W84  0.2-  0.1-    K21A4  W84  0.1+  0.2+    
M. P. C. Staff               (C) Copyright 2023 MPC           M.P.E.C. 2023-W148
    
    
More information about the Iaude
mailing list